FENGYUN 1C DEB, 36699

Orbit data source: Space-Track

FENGYUN 1C DEB, 36699 is space debris in SSO originally from a launch on Mon, 10 May 1999 UTC launched from the Taiyaun Space Center, China (TSC). Fengyun 1C debris stems from the Chinese weather satellite Fengyun-1C, which was intentionally destroyed by a Chinese anti-satellite missile in 2007. This event dramatically increased the amount of space debris, with thousands of trackable fragments posing hazards to satellites and human spaceflight. The Fengyun 1C debris cloud has become a focal point in discussions about space sustainability and the need for international regulations to prevent the creation of new debris.

Loading next visibility...
Identifier
36699, 1999-025DZV
Orbit
SSO
Country
Flag of CNCN / PRC
Related business
Manufacturer
Unknown
Mission
Spacecraft
Bus & Motor
Unknown
Mass
Unknown
Launch date (UTC)
1999-05-10 (27 years ago)
Launch vehicle
Unknown
Launch site
Taiyaun Space Center, China (TSC)
Object type
Payload
Rocket body
Debris
Shape & HBR
Unknown shape, 0.1 m
Radar Cross Section
Small (<0.1 m²)

Expand to show TLE details & history
Last TLE update: 3 days ago

TLE from 3 days ago
0 FENGYUN 1C DEB
1 36699U 99025DZV 26148.80382150  .00000612  00000-0  27003-3 0  9990
2 36699  98.5675 144.1586 0093750   4.5136 355.6867 14.24518996757050
Epoch: 2026-05-28T19:17Z
TLE epoch observation values (Epoch: 2026-05-28T19:17:30.177Z)
Latitude
-0.00009°
Longitude
-31.56043°
Altitude
745.827 km
Speed
7.517 km/s
True Right ascension
09h 36m 38s
True Declination
0° 00' 00"
Sunlit
Object was in daylight at epoch
Visualization orbit readout
Latitude
Unknown
Longitude
Unknown
Altitude
Unknown
Speed
Unknown
Apparent Right ascension
Unknown
Apparent Declination
Unknown
Sunlit
N/A
Visualization observer readout
Local Sidereal Time
19:48:12
Azimuth
Unknown
Elevation
Unknown
Doppler factor
Unknown
Orbital elements
Apogee altitude
874.619 km
Perigee altitude
739.893 km
Semi-major axis
7,185.393 km
Eccentricity
0.00938
Inclination
98.5675°
RAAN
144.1586°
Arg. of periapsis
4.5136°
True anomaly
355.60495°
Mean anomaly
355.6867°
Eccentric anomaly
355.64592°
Mean motion
3.56342 °/min
Orbital period
101.03 mins
BSTAR
0.00027003
Loading maneuver chart data...
Computing Atmospheric mass density...
Loading historical data...
Loading historical data...
Loading historical data...
Loading historical data...
Loading historical data...
Loading historical data...
Loading historical data...

Documentation

Showing up to 5 results
|